Hourly Data Report for March 24, 2003

SHERBROOKE A
QUEBEC

45°26'00.000" N
71°41'00.000" W
241.40 m
7028124
71610
YSC

Download Data

Hourly Data (March 2003)
Hourly Data Report for March 24, 2003
TIME
LST
Temp Definition
°C
Dew Point Definition
°C
Rel Hum Definition
%
Precip. Amount Definition
mm

Wind Dir Definition
10's deg

Wind Spd Definition
km/h
Visibility Definition
km
Stn Press Definition
kPa
Hmdx Definition


Wind Chill Definition


Weather Definition


00:00 1.1 -1.9 80   25 4 12.9 98.66      
01:00 0.9 -1.9 82   17 4 11.3 98.65      
02:00 1.1 -1.8 81   13 4 11.3 98.64      
03:00 0.4 -2.1 83     0 9.7 98.66      
04:00 0.4 -2.1 83     0 9.7 98.68      
05:00 0.4 -2.0 84     0 9.7 98.71      
06:00 0.4 -2.1 83     0 9.7 98.75      
07:00 1.0 -1.7 82     0 11.3 98.78      
08:00 2.0 -1.7 76     0 24.1 98.80     Mostly Cloudy
09:00 4.0 -1.6 67   27 6 24.1 98.85     Mostly Cloudy
10:00 5.5 -1.2 62   22 11 24.1 98.83     Mainly Clear
11:00 6.5 -1.1 58   22 11 24.1 98.79     Mainly Clear
12:00 7.2 -1.2 55   23 9 24.1 98.75     Mainly Clear
13:00 7.9 -1.7 51   22 13 24.1 98.70     Mainly Clear
14:00 9.2 -1.7 46   24 17 24.1 98.67     Mainly Clear
15:00 8.3 -1.6 50   25 11 24.1 98.65     Mainly Clear
16:00 9.0 -0.8 50   27 9 24.1 98.64     Mainly Clear
17:00 7.9 -0.7 55   28 11 24.1 98.66     Clear
18:00 6.8 -0.7 59   32 6 15.0 98.66      
19:00 2.6 -2.0 72   11 4 15.0 98.71      
20:00 1.3 -2.4 76   10 6 15.0 98.72      
21:00 -0.1 -3.4 78   10 6 15.0 98.68   -2  
22:00 0.5 -3.4 75   9 11 15.0 98.66      
23:00 -0.5 -3.8 78   9 11 15.0 98.61   -4  

Notes on Data Quality.

Legend

  • E = Estimated
  • M = Missing
  • NA = Not Available*
  • [empty] = Indicates an unobserved value
Date modified: